EUTELSAT 172B

Last updated on Sun Dec 14 2025 00:02:52 GMT+0000 (Coordinated Universal Time)

1 42741U 17029B 25347.30808816 .00000008 00000+0 00000+0 0 9998 2 42741 0.0368 140.3237 0000134 243.4005 341.4160 1.00270678 31861
UTC large
Height (km)
Speed (km/s)
/
Latitude / Longitude
Inclination (degrees)
Orbital Period (minutes)
Azimuth
Elevation
Range (km)
Doppler Factor

Next 0 passes for location: London (51.5072 / 0.1276)

Sorry there are no passes over London.